Flag for U.S.A. Weather past 2 weeks in Yonkers, New York, U.S.A.

Now
48 °F

Light rain. Overcast.


Feels Like: 42 °F
Forecast: 38 / 50 °F
Wind: 16 mph from West

Location: Teterboro Airport

Current Time: Dec 17, 2014 at 5:06:15 PM

Latest Report: Dec 17, 2014 at 3:51 PM


Visibility: 10 mi

Pressure: 29.83 "Hg

Humidity: 68%

Dew point: 38 °F

Location of YonkersLocation

Historic Weather in Yonkers — Graph

°F

Yonkers temperature yesterday

Maximum temperature yesterday: 48 °F (at 2:51 PM)
Minimum temperature yesterday: 33 °F (at 2:51 AM)
Average temperature yesterday: 41 °F

Past Weeks' High & Low Weather Summary

 TemperatureHumidityPressure
High53 °F (Dec 17, 12:51 PM)100% (Dec 9, 11:53 AM)30.70 "Hg (Dec 9, 11:53 AM)
Low24 °F (Dec 8, 6:51 AM)28% (Dec 7, 4:51 PM)29.58 "Hg (Dec 10, 1:58 PM)
Average38 °F69%30.09 "Hg
* Reported Dec 2 3:51 PM — Dec 17 3:51 PM, Yonkers, Weather by CustomWeather, © 2014

Note: Actual official high and low records may vary slightly from our data, if they occured in-between our weather recording intervals... More about our weather records

Advertising

Yonkers weather history for previous 24 hours

 ConditionsComfort  
Time TempWeatherWind HumidityBarometerVisibility
3:51 PM
Dec 17
48 °FLight rain. Overcast.16 mph68%29.83 "Hg10 mi
2:51 PM51 °FOvercast.12 mph59%29.80 "Hg10 mi
1:51 PM52 °FOvercast.12 mph59%29.79 "Hg10 mi
12:51 PM53 °FOvercast.13 mph56%29.79 "Hg10 mi
11:51 AM52 °FOvercast.12 mph61%29.81 "Hg10 mi
10:51 AM51 °FPassing clouds.9 mph66%29.83 "Hg10 mi
9:51 AM49 °FSunny.9 mph74%29.86 "Hg10 mi
8:51 AM46 °FPassing clouds.6 mph79%29.84 "Hg10 mi
7:51 AM44 °FBroken clouds.3 mph89%29.83 "Hg10 mi
6:51 AM45 °FPartly cloudy.No wind86%29.82 "Hg10 mi
5:51 AM44 °FLight rain. Fog.3 mph93%29.82 "Hg6 mi
4:51 AM45 °FLight rain. Fog.No wind93%29.81 "Hg5 mi
3:51 AM45 °FLight rain. Fog.No wind93%29.80 "Hg5 mi
2:51 AM45 °FLight rain. Fog.5 mph93%29.81 "Hg3 mi
1:51 AM44 °FLight rain. Fog.5 mph93%29.81 "Hg3 mi
12:58 AM45 °FLight rain. Fog.5 mph93%29.81 "Hg3 mi
11:58 PM
Dec 16
45 °FLight rain. Fog.5 mph93%29.83 "Hg2 mi
10:51 PM45 °FLight rain. Fog.3 mph93%29.86 "Hg5 mi
9:51 PM45 °FDrizzle. Fog.No wind90%29.88 "Hg3 mi
8:51 PM45 °FRain. Fog.3 mph90%29.90 "Hg2 mi
7:56 PM45 °FRain. Fog.No wind93%29.91 "Hg2 mi
6:51 PM45 °FOvercast.6 mph86%29.94 "Hg8 mi
5:51 PM45 °FOvercast.3 mph82%29.95 "Hg8 mi
Weather by CustomWeather, © 2014

See weather overviewHow to use our weather pages